[keps] orb08164.amsat
Ray Hoad
r.hoad at att.net
Thu Jun 12 19:34:16 PDT 2008
SB KEPS @ AMSAT $ORB08164.O
Orbital Elements 08164.OSCAR
HR AMSAT ORBITAL ELEMENTS FOR OSCAR SATELLITES
FROM WA5QGD FORT WORTH,TX June 12, 2008
Send Subscribe/unsubscribe to KEPS at
http://www.amsat.org/mailman/listinfo/keps
BID: ORB08164.O
TO ALL RADIO AMATEURS BT
Satellite: AO-07
Catalog number: 07530
Epoch time: 08163.70711665
Element set: 0201
Inclination: 101.4660 deg
RA of node: 195.3879 deg
Eccentricity: 0.0011569
Arg of perigee: 273.5729 deg
Mean anomaly: 086.4015 deg
Mean motion: 12.53573841 rev/day
Decay rate: -2.7e-07 rev/day^2
Epoch rev: 53629
Checksum: 302
Satellite: AO-10
Catalog number: 14129
Epoch time: 08163.40471932
Element set: 0517
Inclination: 025.9622 deg
RA of node: 210.9212 deg
Eccentricity: 0.5985453
Arg of perigee: 131.1601 deg
Mean anomaly: 298.5147 deg
Mean motion: 02.05867520 rev/day
Decay rate: 1.57e-06 rev/day^2
Epoch rev: 18798
Checksum: 301
Satellite: UO-11
Catalog number: 14781
Epoch time: 08163.84331037
Element set: 0694
Inclination: 098.1528 deg
RA of node: 197.7970 deg
Eccentricity: 0.0010193
Arg of perigee: 090.7985 deg
Mean anomaly: 269.4393 deg
Mean motion: 14.79645720 rev/day
Decay rate: -2.43e-06 rev/day^2
Epoch rev: 30306
Checksum: 327
Satellite: RS-15
Catalog number: 23439
Epoch time: 08163.95834534
Element set: 0179
Inclination: 064.8142 deg
RA of node: 143.5010 deg
Eccentricity: 0.0147470
Arg of perigee: 123.8255 deg
Mean anomaly: 237.6803 deg
Mean motion: 11.27552232 rev/day
Decay rate: -3.9e-07 rev/day^2
Epoch rev: 55437
Checksum: 298
Satellite: FO-29
Catalog number: 24278
Epoch time: 08163.79666750
Element set: 0800
Inclination: 098.5852 deg
RA of node: 080.7912 deg
Eccentricity: 0.0350001
Arg of perigee: 229.4327 deg
Mean anomaly: 127.5856 deg
Mean motion: 13.52938108 rev/day
Decay rate: 4.2e-07 rev/day^2
Epoch rev: 58366
Checksum: 327
Satellite: SO-33
Catalog number: 25509
Epoch time: 08163.73786713
Element set: 0218
Inclination: 031.4355 deg
RA of node: 347.1603 deg
Eccentricity: 0.0355016
Arg of perigee: 339.5214 deg
Mean anomaly: 019.1515 deg
Mean motion: 14.28214371 rev/day
Decay rate: -1.05e-06 rev/day^2
Epoch rev: 50283
Checksum: 280
Satellite: AO-40
Catalog number: 26609
Epoch time: 08163.23680576
Element set: 75
Inclination: 007.5807 deg
RA of node: 078.1579 deg
Eccentricity: 0.7915374
Arg of perigee: 090.2424 deg
Mean anomaly: 349.6788 deg
Mean motion: 01.25583634 rev/day
Decay rate: -6.6e-07 rev/day^2
Epoch rev: 3496
Checksum: 343
Satellite: VO-52
Catalog number: 28650
Epoch time: 08164.88101300
Element set: 954
Inclination: 097.7901 deg
RA of node: 231.6101 deg
Eccentricity: 0.0027807
Arg of perigee: 152.6078 deg
Mean anomaly: 207.6643 deg
Mean motion: 14.81471116 rev/day
Decay rate: -6.6e-07 rev/day^2
Epoch rev: 16796
Checksum: 301
Satellite: PO-63
Catalog number: 29712
Epoch time: 08164.83008721
Element set: 526
Inclination: 097.8751 deg
RA of node: 223.0984 deg
Eccentricity: 0.0015194
Arg of perigee: 039.4072 deg
Mean anomaly: 320.8232 deg
Mean motion: 14.80179209 rev/day
Decay rate: 4.27e-06 rev/day^2
Epoch rev: 7682
Checksum: 308
/EX
SB KEPS @ AMSAT $ORB08164.D
Orbital Elements 08164.MICROS
HR AMSAT ORBITAL ELEMENTS FOR THE MICROSATS
FROM WA5QGD FORT WORTH,TX June 12, 2008
Send Subscribe/unsubscribe to KEPS at
http://www.amsat.org/mailman/listinfo/keps
BID: ORB08164.D
TO ALL RADIO AMATEURS BT
Satellite: AO-16
Catalog number: 20439
Epoch time: 08164.87786119
Element set: 343
Inclination: 098.2295 deg
RA of node: 145.1612 deg
Eccentricity: 0.0010533
Arg of perigee: 184.9105 deg
Mean anomaly: 175.1966 deg
Mean motion: 14.31795740 rev/day
Decay rate: 9.0e-08 rev/day^2
Epoch rev: 96030
Checksum: 311
Satellite: LO-19
Catalog number: 20442
Epoch time: 08163.52846113
Element set: 0270
Inclination: 098.2007 deg
RA of node: 152.4350 deg
Eccentricity: 0.0011795
Arg of perigee: 186.4025 deg
Mean anomaly: 173.7001 deg
Mean motion: 14.32033517 rev/day
Decay rate: -6.1e-07 rev/day^2
Epoch rev: 96026
Checksum: 264
Satellite: AO-27
Catalog number: 22825
Epoch time: 08163.67011409
Element set: 990
Inclination: 098.3833 deg
RA of node: 123.8979 deg
Eccentricity: 0.0007469
Arg of perigee: 277.1895 deg
Mean anomaly: 082.8429 deg
Mean motion: 14.29240399 rev/day
Decay rate: -2.9e-07 rev/day^2
Epoch rev: 76698
Checksum: 365
Satellite: IO-26
Catalog number: 22826
Epoch time: 08163.86510828
Element set: 0697
Inclination: 098.3760 deg
RA of node: 124.9985 deg
Eccentricity: 0.0008062
Arg of perigee: 275.3778 deg
Mean anomaly: 084.6481 deg
Mean motion: 14.29489442 rev/day
Decay rate: -4.0e-08 rev/day^2
Epoch rev: 76710
Checksum: 348
Satellite: PO-28
Catalog number: 22829
Epoch time: 08163.85422792
Element set: 0967
Inclination: 098.3638 deg
RA of node: 126.0933 deg
Eccentricity: 0.0008799
Arg of perigee: 244.1184 deg
Mean anomaly: 115.9097 deg
Mean motion: 14.30190636 rev/day
Decay rate: -4.4e-07 rev/day^2
Epoch rev: 76736
Checksum: 344
Satellite: GO-32
Catalog number: 25397
Epoch time: 08163.76721333
Element set: 620
Inclination: 098.3631 deg
RA of node: 199.1980 deg
Eccentricity: 0.0000361
Arg of perigee: 219.2151 deg
Mean anomaly: 140.8998 deg
Mean motion: 14.23145043 rev/day
Decay rate: 1.13e-06 rev/day^2
Epoch rev: 51544
Checksum: 287
Satellite: NO-44
Catalog number: 26931
Epoch time: 08163.82848947
Element set: 0902
Inclination: 067.0522 deg
RA of node: 298.4601 deg
Eccentricity: 0.0006735
Arg of perigee: 275.1541 deg
Mean anomaly: 084.8802 deg
Mean motion: 14.29524244 rev/day
Decay rate: -1.04e-06 rev/day^2
Epoch rev: 34964
Checksum: 315
Satellite: SO-50
Catalog number: 27607
Epoch time: 08163.70493639
Element set: 0626
Inclination: 064.5580 deg
RA of node: 070.2890 deg
Eccentricity: 0.0085670
Arg of perigee: 280.3356 deg
Mean anomaly: 078.8123 deg
Mean motion: 14.71361388 rev/day
Decay rate: -6.1e-07 rev/day^2
Epoch rev: 29416
Checksum: 319
Satellite: CO-55
Catalog number: 27844
Epoch time: 08163.59079746
Element set: 0326
Inclination: 098.7146 deg
RA of node: 171.9353 deg
Eccentricity: 0.0010553
Arg of perigee: 127.8403 deg
Mean anomaly: 232.3724 deg
Mean motion: 14.20583045 rev/day
Decay rate: 1.9e-07 rev/day^2
Epoch rev: 25664
Checksum: 313
Satellite: CO-57
Catalog number: 27848
Epoch time: 08164.57433217
Element set: 277
Inclination: 098.7154 deg
RA of node: 172.0025 deg
Eccentricity: 0.0010411
Arg of perigee: 129.0912 deg
Mean anomaly: 231.1192 deg
Mean motion: 14.20391678 rev/day
Decay rate: 5.0e-08 rev/day^2
Epoch rev: 25675
Checksum: 292
Satellite: AO-51
Catalog number: 28375
Epoch time: 08163.56177424
Element set: 0123
Inclination: 098.0709 deg
RA of node: 188.4489 deg
Eccentricity: 0.0083477
Arg of perigee: 169.2598 deg
Mean anomaly: 191.0399 deg
Mean motion: 14.40610535 rev/day
Decay rate: 2.0e-07 rev/day^2
Epoch rev: 20759
Checksum: 332
Satellite: CO-56
Catalog number: 28941
Epoch time: 08164.57315436
Element set: 124
Inclination: 098.1068 deg
RA of node: 274.6417 deg
Eccentricity: 0.0166699
Arg of perigee: 058.1614 deg
Mean anomaly: 303.5670 deg
Mean motion: 15.57105706 rev/day
Decay rate: 1.7861e-04 rev/day^2
Epoch rev: 12932
Checksum: 329
Satellite: CP4
Catalog number: 31122
Epoch time: 08163.66106387
Element set: 0361
Inclination: 098.0412 deg
RA of node: 229.4563 deg
Eccentricity: 0.0085494
Arg of perigee: 346.8880 deg
Mean anomaly: 013.0078 deg
Mean motion: 14.55132790 rev/day
Decay rate: 5.50e-06 rev/day^2
Epoch rev: 06127
Checksum: 291
Satellite: CP3
Catalog number: 31128
Epoch time: 08163.68422307
Element set: 0354
Inclination: 098.0388 deg
RA of node: 227.3549 deg
Eccentricity: 0.0102903
Arg of perigee: 352.6427 deg
Mean anomaly: 007.3257 deg
Mean motion: 14.51951441 rev/day
Decay rate: -4.8e-07 rev/day^2
Epoch rev: 06113
Checksum: 285
/EX
SB KEPS @ AMSAT $ORB08164.W
Orbital Elements 08164.WEATHER
HR AMSAT ORBITAL ELEMENTS FOR WEATHER SATELLITES
FROM WA5QGD FORT WORTH,TX June 12, 2008
Send Subscribe/unsubscribe to KEPS at
http://www.amsat.org/mailman/listinfo/keps
BID: ORB08164.W
TO ALL RADIO AMATEURS BT
Satellite: NOAA-10
Catalog number: 16969
Epoch time: 08163.68688791
Element set: 0156
Inclination: 098.7214 deg
RA of node: 185.6681 deg
Eccentricity: 0.0011960
Arg of perigee: 193.6744 deg
Mean anomaly: 166.4115 deg
Mean motion: 14.27360929 rev/day
Decay rate: -1.07e-06 rev/day^2
Epoch rev: 13065
Checksum: 333
Satellite: NOAA-11
Catalog number: 19531
Epoch time: 08163.79313909
Element set: 0195
Inclination: 098.7978 deg
RA of node: 253.1930 deg
Eccentricity: 0.0012445
Arg of perigee: 084.2506 deg
Mean anomaly: 276.0085 deg
Mean motion: 14.14873067 rev/day
Decay rate: 1.96e-06 rev/day^2
Epoch rev: 01714
Checksum: 315
Satellite: NOAA-12
Catalog number: 21263
Epoch time: 08163.79739776
Element set: 0710
Inclination: 098.7653 deg
RA of node: 165.7496 deg
Eccentricity: 0.0013089
Arg of perigee: 137.8788 deg
Mean anomaly: 222.3371 deg
Mean motion: 14.25534842 rev/day
Decay rate: -7.0e-07 rev/day^2
Epoch rev: 88762
Checksum: 345
Satellite: MET-3/5
Catalog number: 21655
Epoch time: 08163.95130906
Element set: 0551
Inclination: 082.5519 deg
RA of node: 108.0825 deg
Eccentricity: 0.0014736
Arg of perigee: 029.7247 deg
Mean anomaly: 330.4710 deg
Mean motion: 13.17015899 rev/day
Decay rate: 5.1e-07 rev/day^2
Epoch rev: 80889
Checksum: 307
Satellite: MET-2/21
Catalog number: 22782
Epoch time: 08163.85805841
Element set: 166
Inclination: 082.5472 deg
RA of node: 115.8065 deg
Eccentricity: 0.0021338
Arg of perigee: 308.3632 deg
Mean anomaly: 051.5618 deg
Mean motion: 13.83629430 rev/day
Decay rate: 1.76e-06 rev/day^2
Epoch rev: 74639
Checksum: 310
Satellite: OKEAN-4
Catalog number: 23317
Epoch time: 08164.73754833
Element set: 612
Inclination: 082.5393 deg
RA of node: 319.2197 deg
Eccentricity: 0.0023311
Arg of perigee: 138.3796 deg
Mean anomaly: 221.9190 deg
Mean motion: 14.82617241 rev/day
Decay rate: 2.30e-06 rev/day^2
Epoch rev: 73762
Checksum: 297
